Location: Newcastle
(43.9170°N, 78.5830°W)
Time: 07:53:32
(UTC-04:00)

Daily predictions for brighter satellites

Satellite Brightness Start Highest point End
(mag) Time Altitude Azimuth Time Altitude Azimuth Time Altitude Azimuth
BREEZE-M DEB (TANK) 4.4 19:23:08 10° WNW 19:27:31 73° NNE 19:44:54 10° ESE
Cosmos 2074 Rocket 4.1 19:35:08 10° N 19:41:24 89° E 19:47:36 10° S
Cosmos 389 Rocket 3.7 19:40:10 10° NNE 19:42:55 22° ENE 19:45:40 10° SE
H-2A R/B 3.7 19:43:10 10° E 19:45:56 15° ENE 19:48:45 10° NNE
COSMOS 2455 4.3 19:41:26 10° NW 19:47:03 42° WSW 19:52:38 10° S
Cosmos 1536 Rocket 4.2 19:43:39 10° NNW 19:47:56 62° W 19:52:12 10° S
CSL-04 Rocket 3.9 19:43:44 10° SSE 19:49:14 81° WSW 19:54:50 10° NNW
YAOGAN 1 2.9 19:50:17 10° S 19:54:35 70° WSW 19:58:55 10° NNW
Cosmos 2341 Rocket 4.4 19:48:59 10° N 19:54:51 41° ENE 20:00:40 10° SE
BREEZE-M DEB (TANK) 4.0 19:53:09 10° W 19:55:09 22° SSW 19:58:52 10° SSE
GP-B 3.1 19:50:55 10° N 19:55:22 69° E 19:59:47 10° S
Cosmos 1544 3.0 19:51:48 10° S 19:55:22 90° SW 19:59:00 10° N
Cosmos 2237 Rocket 2.4 19:50:05 10° NNW 19:55:40 52° ENE 20:01:13 10° SE
Cosmos 2333 Rocket 2.8 19:51:01 10° NNW 19:56:39 64° WSW 20:02:18 10° S
Ariane Rocket 3.0 19:53:25 10° SSE 19:58:23 63° ENE 20:03:25 10° N
Cosmos 1892 Rocket 4.3 19:56:34 10° N 20:00:33 32° ENE 20:04:29 10° SE
ISS -3.9 19:58:59 10° SW 20:02:18 79° SE 20:05:37 10° ENE
Cosmos 1707 2.7 20:00:07 10° N 20:04:00 62° E 20:07:52 10° SSE
ERBS 3.9 20:01:49 10° NNW 20:04:36 23° NNE 20:06:39 14° ENE
Cosmos 1980 3.7 20:00:17 10° NNW 20:05:56 66° ENE 20:11:32 10° SE
DMSP B5D1-3 4.5 20:01:34 10° NNE 20:06:42 85° ESE 20:11:47 10° SSW
NOSS 0 Rocket 4.0 20:02:45 10° NNW 20:09:00 88° WSW 20:15:14 10° SSE
Cosmos 2154 Rocket 4.0 20:03:39 10° N 20:09:54 88° E 20:16:07 10° S
Cosmos 407 Rocket 3.5 20:05:13 10° NNW 20:10:19 64° ENE 20:15:24 10° SSE
DELTA 2 R/B (1) 4.0 20:07:02 10° WSW 20:12:24 48° SSE 20:16:29 17° E
Cosmos 2056 Rocket 3.6 20:07:51 10° S 20:13:08 57° ESE 20:18:27 10° NNE
NOSS 3-4 (A) 4.0 20:06:07 10° NW 20:13:11 80° SW 20:20:56 10° SSE
NOSS 3-4 (C) 4.0 20:06:13 10° NW 20:13:17 80° SW 20:21:02 10° SSE
USA 186 2.9 20:12:11 17° ESE 20:14:04 28° ENE 20:17:04 10° N
RESURS DK-1 4.5 20:12:37 10° NNE 20:14:22 12° NE 20:15:30 11° ENE
ADEOS Rocket 4.2 20:08:34 10° NNE 20:15:06 31° E 20:21:46 10° SSE
SL-8 Rocket 4.4 20:09:18 10° N 20:15:09 42° ENE 20:20:55 10° SE
ASTEX 1 3.5 20:10:25 10° NNE 20:15:12 51° E 20:19:57 10° SSE
Cosmos 2084 Rocket 3.5 20:13:32 10° SSW 20:17:57 68° SE 20:22:24 10° NE
PSLV R/B 3.5 20:16:29 10° WSW 20:18:59 35° S 20:19:50 27° SE
SL-8 R/B 4.4 20:15:43 10° WNW 20:20:21 48° N 20:23:59 16° ENE
Okean 1-7 Rocket 3.6 20:19:13 10° N 20:23:37 57° E 20:28:02 10° SSE
Cosmos 1624 Rocket 3.9 20:19:11 10° SSW 20:24:21 73° ESE 20:29:33 10° NNE
Meteor 1-4 Rocket 2.5 20:21:06 10° N 20:24:34 53° ENE 20:27:08 16° SSE
Cosmos 1140 Rocket 3.5 20:20:36 10° NNW 20:25:43 58° ENE 20:29:56 15° SE
Cosmos 2219 Rocket 3.7 20:20:47 10° NW 20:25:54 37° WSW 20:30:59 10° S
SL-16 R/B 2.8 20:23:28 10° NNW 20:28:46 38° ENE 20:31:46 22° ESE
CZ-2D R/B 4.4 20:29:26 10° S 20:33:03 43° W 20:36:42 10° NNW
Cosmos 1954 Rocket 4.2 20:28:41 10° NNW 20:33:47 52° ENE 20:36:55 22° SE
EO 1 Delta rocket 4.3 20:29:14 10° SSE 20:35:46 79° E 20:40:59 10° N
SJ-6B 3.1 20:33:24 22° SE 20:35:46 50° ENE 20:39:43 10° N
GEOS 3 Rocket 3.6 20:33:28 21° SE 20:36:50 68° NE 20:41:55 10° NNW
CZ-4 R/B 4.4 20:34:21 10° SW 20:36:53 17° W 20:39:28 10° NW
Cosmos 1544 Rocket 3.8 20:33:51 10° SSE 20:38:07 46° E 20:42:23 10° NNE
Cosmos 1455 Rocket 3.1 20:33:51 10° S 20:38:11 58° E 20:42:34 10° NNE
Cosmos 482 Debris 4.4 20:34:06 10° SW 20:39:17 52° SE 20:40:25 36° E
Cosmos 1766 3.7 20:40:11 31° SE 20:41:19 39° E 20:45:00 10° NNE
Meteor 2-5 Rocket 3.8 20:36:08 10° N 20:41:56 61° ENE 20:46:48 15° SSE
Cosmos 2082 3.8 20:36:57 10° S 20:42:30 54° ESE 20:48:04 10° NNE
ARGOS 3.4 20:43:51 26° SE 20:46:32 48° ENE 20:51:42 10° N
SPOT 3 Rocket 3.4 20:51:58 19° SSE 20:55:39 79° ENE 21:00:49 10° NNW
ATLAS 2AS CENTAUR R/B 4.4 20:49:37 10° NW 20:56:01 31° WSW 21:01:58 10° S
Cosmos 405 Rocket 3.3 20:52:58 10° SSW 20:56:35 54° WNW 21:00:15 10° N
Cosmos 2227 Rocket 2.3 20:51:20 10° SSW 20:56:59 77° WNW 21:02:41 10° NNE
Lacrosse 5 rocket 1.8 20:54:03 10° WSW 20:57:37 51° NW 20:59:57 20° NNE
Lacrosse 5 3.4 20:54:04 10° S 20:55:56 19° SSE 20:55:56 19° SSE
Cosmos 1626 Rocket 3.8 20:54:23 10° N 20:58:32 44° ENE 20:58:33 44° ENE
CZ-2C R/B 3.6 20:59:07 37° E 21:00:12 41° ENE 21:05:24 10° N
Cosmos 2219 4.5 20:57:58 10° SW 21:03:24 43° WNW 21:08:52 10° NNE
FREGAT/IRIS 4.4 21:04:12 18° SW 21:05:36 28° W 21:08:05 10° NW
Cosmos 2297 Rocket 2.7 21:01:35 10° SW 21:07:10 61° WNW 21:12:48 10° NNE
Cosmos 1452 Rocket 3.4 21:02:06 10° S 21:07:16 63° ESE 21:12:28 10° NNE
Cosmos 1674 2.5 21:04:09 10° N 21:07:46 77° ENE 21:07:46 77° ENE
Cosmos 676 Rocket 4.1 21:03:22 10° NNW 21:08:37 75° WSW 21:11:24 28° S
Cosmos 1437 Rocket 2.5 21:05:57 10° N 21:09:45 88° W 21:10:02 77° S
Resurs 1-3 3.5 21:17:12 69° ENE 21:17:14 69° ENE 21:21:37 10° N
Cosmos 1602 Rocket 3.8 21:16:23 10° N 21:20:00 53° NE 21:20:00 53° NE
H-2A R/B 2.0 21:22:56 41° S 21:24:42 76° WSW 21:29:47 10° NNW
Cosmos 1943 4.4 21:23:28 10° N 21:27:56 27° NE 21:27:56 27° NE
Cosmos 1805 3.8 21:27:40 43° SW 21:28:35 55° W 21:32:26 10° N
Resurs 01 Rocket 1.9 21:33:08 61° NNE 21:33:08 61° NNE 21:36:53 10° N
ISS -1.5 21:36:25 10° WNW 21:38:33 24° NW 21:38:33 24° NW
Cosmos 2237 Rocket 4.2 21:34:51 10° NW 21:39:21 25° WSW 21:43:50 10° SSW
ERBS 4.4 21:37:52 10° WNW 21:39:41 27° WNW 21:39:41 27° WNW
Cosmos 1850 Rocket 3.9 21:36:24 10° NNW 21:41:24 80° NNE 21:41:24 80° NNE
Nadezhda 3 Rocket 3.9 21:44:16 67° E 21:44:16 67° E 21:50:13 10° NNE
SL-24 R/B 4.4 21:46:09 75° WNW 21:46:09 75° WNW 21:50:56 10° NNW
Meteor 1-24 Rocket 4.4 21:43:54 10° NNW 21:49:35 54° W 21:52:08 32° SSW
RESURS DK-1 3.7 21:48:52 10° NNW 21:51:24 36° NNW 21:51:24 36° NNW
DELTA 2 R/B (1) 4.3 21:53:01 10° W 21:57:14 45° SW 21:57:14 45° SW
Cosmos 1821 Rocket 3.9 21:53:55 10° N 21:59:39 76° NNE 21:59:39 76° NNE
ADEOS Rocket 4.0 21:53:31 10° N 22:00:50 61° WNW 22:08:27 10° SSW
Cosmos 2239 Rocket 4.5 22:00:51 10° N 22:06:29 72° NNE 22:06:29 72° NNE
Cosmos 1603 4.2 22:03:01 10° NNW 22:07:26 52° N 22:07:26 52° N
CZ-2C R/B 4.1 22:04:33 10° NNE 22:07:05 28° NNE 22:07:05 28° NNE
SL-16 R/B 3.4 22:07:44 10° NW 22:12:49 34° WSW 22:13:40 33° WSW
Spot 2 Rocket 4.4 22:15:27 45° NNW 22:15:27 45° NNW 22:18:57 10° NNW
Terra 4.3 22:17:54 14° NNE 22:17:54 14° NNE 22:18:39 10° N
BREEZE M DEB (TANK) 4.5 22:16:30 10° WNW 22:17:44 27° NW 22:17:44 27° NW
CZ-4C R/B 4.3 22:19:04 10° NNW 22:24:27 24° NNE 22:25:19 23° NE
Lacrosse 5 rocket 4.4 22:35:13 10° NW 22:35:37 11° NW 22:35:37 11° NW
